Santa Fe, NM

7:34 PM MDT on March 28, 2017 (GMT -0600)
Santa Fe Municipal

Weather History for KSAF - June, 2013

Change the Weather History Date:

Thursday, June 20, 2013

  Actual Average Record
Temperature  
Mean Temperature 74 °F -  
Max Temperature 91 °F 89 °F 97 °F (2012)
Min Temperature 57 °F 44 °F 42 °F (1980)
Cooling Degree Days 9    
Growing Degree Days 24 (Base 50)    
Moisture  
Dew Point 19 °F    
Average Humidity 25    
Maximum Humidity 72    
Minimum Humidity 4    
Precipitation  
Precipitation 0.00 in - - ()
Sea Level Pressure  
Sea Level Pressure 29.73 in    
Wind  
Wind Speed 9 mph (SSW)    
Max Wind Speed 18 mph    
Max Gust Speed 28 mph    
Visibility 10 miles    
Events      
Averages and records for this station are not official NWS values.
T = Trace of Precipitation, MM = Missing Value Source: NWS Daily Summary

Daily Weather History Graph

Daily Weather History Graph

Search for Another Location

Airport or City:

Trip Planner

Search our weather history database for the weather conditions in past years. The results will help you decide how hot, cold, wet, or windy it might be!

Date:

Astronomy

Jun. 20, 2013 Rise Set
Actual Time 5:48 AM MDT 8:23 PM MDT
Civil Twilight 5:18 AM MDT 8:53 PM MDT
Nautical Twilight 4:41 AM MDT 9:30 PM MDT
Astronomical Twilight 4:00 AM MDT 10:11 PM MDT
Moon 5:32 PM MDT (6/20) 3:12 AM MDT (6/20)
Length of Visible Light 15h 34m
Length of Day
14h 34m
Waxing Gibbous, 89% of the Moon is Illuminated
Jun 20
Waxing Gibbous
Jun 23
Full
Jun 29
Last Quarter
Jul 8
New
Jul 15
First Quarter

Hourly Weather History & Observations

Time (MDT) Temp. Dew Point Humidity Pressure Visibility Wind Dir Wind Speed Gust Speed Precip Events Conditions
12:53 AM 69.1 °F 52.0 °F 54% 29.71 in 9.0 mi ESE 13.8 mph 23.0 mph N/A   Clear
1:53 AM 68.0 °F 52.0 °F 56% 29.71 in 9.0 mi ESE 11.5 mph - N/A   Clear
2:53 AM 64.9 °F 51.1 °F 61% 29.70 in 10.0 mi SE 4.6 mph - N/A   Clear
3:53 AM 62.1 °F 48.9 °F 62% 29.71 in 10.0 mi Calm Calm - N/A   Clear
4:53 AM 59.0 °F 48.9 °F 69% 29.73 in 10.0 mi SSE 4.6 mph - N/A   Clear
5:53 AM 57.0 °F 48.0 °F 72% 29.77 in 9.0 mi ESE 5.8 mph - N/A   Clear
6:53 AM 60.1 °F 46.9 °F 62% 29.77 in 10.0 mi Calm Calm - N/A   Clear
7:53 AM 70.0 °F 45.0 °F 41% 29.77 in 10.0 mi SSE 6.9 mph - N/A   Clear
8:53 AM 73.0 °F 41.0 °F 31% 29.81 in 10.0 mi South 6.9 mph - N/A   Clear
9:53 AM 78.1 °F 19.0 °F 11% 29.80 in 10.0 mi West 9.2 mph - N/A   Clear
10:53 AM 82.0 °F 12.9 °F 7% 29.81 in 10.0 mi SW 10.4 mph 17.3 mph N/A   Clear
11:53 AM 84.9 °F 10.9 °F 6% 29.78 in 10.0 mi SW 9.2 mph 18.4 mph N/A   Clear
12:53 PM 86.0 °F 3.0 °F 4% 29.76 in 10.0 mi WSW 8.1 mph 21.9 mph N/A   Clear
1:53 PM 87.1 °F 7.0 °F 5% 29.74 in 10.0 mi WSW 15.0 mph 20.7 mph N/A   Clear
2:53 PM 89.1 °F 1.0 °F 4% 29.73 in 10.0 mi WSW 13.8 mph 26.5 mph N/A   Clear
3:53 PM 89.1 °F 1.0 °F 4% 29.72 in 10.0 mi SW 10.4 mph 24.2 mph N/A   Clear
4:53 PM 91.0 °F -6.0 °F 4% 29.70 in 10.0 mi WSW 18.4 mph 27.6 mph N/A   Clear
5:53 PM 90.0 °F -11.0 °F 4% 29.68 in 10.0 mi SSW 13.8 mph 23.0 mph N/A   Clear
6:53 PM 89.1 °F -11.0 °F 4% 29.66 in 10.0 mi SW 10.4 mph - N/A   Clear
7:53 PM 86.0 °F -11.0 °F 4% 29.64 in 10.0 mi SW 4.6 mph - N/A   Clear
8:53 PM 81.0 °F -14.1 °F 4% 29.65 in 10.0 mi South 4.6 mph - N/A   Clear
9:53 PM 78.1 °F -13.0 °F 4% 29.68 in 10.0 mi SW 3.5 mph - N/A   Clear
10:53 PM 70.0 °F -9.0 °F 4% 29.72 in 10.0 mi Calm Calm - N/A   Clear
11:53 PM 72.0 °F 37.0 °F 28% 29.74 in 10.0 mi ESE 17.3 mph - N/A   Clear